Wind_Speed
5 4 6 8 8 8 8 8 8 3 7 9 6 5 5 4 3 4 4 6 3 5 5 8 8 9 10 8 5 7 8 8 10 13 12 10 10 10 11 11 12 12 9 7 10 14 17 18 17 20 25 24 23 24 26 25 22 23 25 25 24 23 24 23 20 21 23 24 22 20 19 18 18 17 16 14 12 10 10 9 9 8 8 9 10 10
4 7 9 7 6 8 9 8 9 4 6 6 6 6 4 4 3 4 4 4 1 3 4 6 8 9 11 7 3 7 10 10 12 14 14 14 12 10 12 13 12 9 4 4 8 12 16 18 17 21 24 23 22 23 24 25 23 23 25 26 25 24 23 22 21 22 24 24 23 22 21 21 19 17 16 14 12 11 10 10 10 10 11 11 11 9
6 8 6 6 6 9 9 8 9 6 5 5 3 6 3 3 2 5 4 3 1 3 3 5 8 8 7 4 2 7 9 8 11 13 14 16 14 12 13 13 12 10 7 7 8 11 15 18 18 20 23 23 23 23 24 25 24 22 24 25 25 24 24 22 22 23 23 23 22 22 22 21 19 16 15 14 13 12 12 13 12 12 12 11 10 8
6 5 6 7 7 10 8 8 10 7 3 4 3 5 2 3 2 2 4 3 0 2 2 6 5 4 4 3 2 6 5 3 7 10 9 10 13 13 13 12 12 14 13 10 8 9 12 15 18 20 21 22 21 21 23 24 24 23 24 25 25 25 24 23 23 24 23 23 22 22 21 20 17 16 15 15 15 14 15 15 15 13 12 10 8 7
4 4 7 8 7 10 9 8 11 7 4 3 4 4 3 2 4 4 3 4 3 2 2 5 2 5 3 2 3 4 3 3 5 8 8 8 10 9 8 9 12 14 14 11 8 9 10 13 18 20 19 20 21 21 22 24 24 24 24 25 25 24 23 23 24 25 25 24 22 21 20 18 17 18 18 18 18 18 17 17 15 13 11 9 8 6
5 5 7 10 7 9 9 8 10 9 5 3 3 5 6 5 3 2 3 5 3 1 2 3 1 5 4 4 5 3 4 5 4 8 11 10 9 9 9 10 12 12 12 11 9 8 9 10 14 17 17 19 20 20 22 23 24 23 23 24 24 23 22 24 26 26 26 24 22 21 21 19 19 19 18 20 21 20 19 17 15 13 10 8 7 7
4 4 5 11 8 8 9 7 8 9 7 3 5 7 7 6 4 0 2 3 3 4 3 2 5 5 5 4 6 4 5 7 5 8 12 10 9 10 10 10 10 11 11 10 9 8 8 9 11 14 17 18 18 18 21 22 22 22 22 23 23 22 23 25 27 26 25 24 22 20 20 20 20 19 18 19 21 20 19 17 15 13 11 9 8 8
6 6 4 9 10 7 7 5 7 10 8 3 6 9 8 6 6 3 1 2 2 3 4 4 4 3 4 5 4 4 5 6 7 10 11 10 11 12 11 10 11 11 11 9 9 8 9 11 12 13 16 17 16 17 20 22 22 22 22 23 23 23 24 25 27 26 24 23 20 19 18 18 19 19 20 21 21 19 18 17 15 13 12 10 8 8
7 9 5 7 9 6 5 5 7 10 7 5 7 10 8 7 6 4 2 2 2 2 4 5 1 3 5 5 1 3 5 8 10 13 13 12 13 13 12 11 11 10 9 8 8 8 8 9 11 12 13 15 16 17 20 22 22 22 23 23 23 24 25 25 26 25 23 22 20 18 18 18 18 19 22 22 20 19 18 17 16 14 13 11 9 8
5 9 7 6 6 5 5 6 9 10 5 6 8 7 4 4 5 5 3 2 2 2 4 6 2 2 4 5 1 3 5 8 10 11 12 12 12 12 12 12 10 9 8 7 6 6 7 8 10 11 13 15 16 17 20 22 22 23 24 24 25 25 25 25 25 24 22 20 19 19 18 18 19 20 22 22 20 19 18 17 16 15 13 12 10 8
2 5 7 6 4 5 7 6 8 10 6 7 9 7 5 4 3 3 2 2 2 2 6 7 5 4 3 5 3 5 6 8 9 8 9 11 12 14 13 11 10 8 7 6 6 6 8 10 11 13 15 16 17 18 20 22 23 24 25 26 25 25 25 24 24 23 21 20 19 19 19 19 20 21 22 22 22 21 19 18 17 16 13 12 10 8
3 2 4 5 6 6 8 6 6 8 8 8 6 5 5 2 3 3 3 2 3 5 6 6 6 5 3 5 4 7 8 8 9 10 11 15 16 15 12 10 9 7 7 7 6 7 8 10 11 14 16 19 20 21 21 23 23 24 25 25 25 24 24 24 23 22 20 20 19 19 19 20 21 24 24 23 24 23 21 20 18 16 14 12 10 8
4 2 3 3 8 9 8 7 4 5 6 7 6 6 6 1 1 2 2 2 4 5 4 5 4 2 5 8 7 11 12 10 11 12 13 16 15 12 10 9 8 7 7 7 7 8 8 8 10 14 16 18 20 21 22 23 22 23 23 24 24 23 23 23 22 21 20 19 19 19 19 19 21 25 25 24 24 23 21 20 19 17 15 12 10 9
3 2 3 4 7 9 10 9 6 6 6 7 6 7 6 4 4 5 3 1 2 3 4 4 3 1 4 6 8 12 12 11 11 11 10 10 9 8 8 8 7 7 8 8 7 8 7 7 10 12 14 15 17 19 21 22 22 21 21 22 23 23 22 22 22 21 20 19 19 18 18 19 21 25 26 25 24 23 21 19 18 16 14 12 11 10
6 3 5 6 5 8 11 8 6 6 5 4 4 6 5 4 6 4 3 3 2 3 3 1 2 3 3 4 6 8 9 8 8 6 5 6 6 8 8 8 8 8 8 8 8 8 7 8 11 13 14 15 16 18 20 22 22 21 21 22 22 21 20 21 21 21 21 19 18 18 18 19 23 26 27 25 24 22 20 18 16 14 12 11 11 11
7 3 5 7 5 10 11 5 6 9 5 3 3 6 5 5 5 3 3 6 4 3 3 1 3 4 4 5 4 3 5 4 6 6 6 7 8 9 9 10 10 9 10 9 9 8 8 10 14 17 18 18 18 19 20 21 22 22 21 21 21 21 21 20 21 21 20 18 18 17 18 21 25 27 27 25 23 22 20 17 15 14 12 10 11 13
6 3 4 7 6 9 12 8 6 7 6 3 3 4 4 4 6 5 2 1 4 3 4 1 3 4 3 5 5 4 3 1 5 7 7 8 10 10 10 10 10 10 10 10 9 9 9 12 15 18 19 19 19 20 20 21 23 23 22 21 20 21 21 21 21 20 19 19 18 17 19 23 26 27 27 26 24 22 19 17 15 14 12 11 14 16
5 1 4 9 9 7 9 11 7 6 7 5 5 6 2 3 3 4 2 2 4 3 4 1 4 3 1 3 5 5 3 2 4 6 7 7 10 11 10 10 11 10 10 10 10 10 10 11 13 15 17 18 20 21 20 21 23 23 22 22 22 21 21 21 21 20 19 19 19 19 21 24 25 26 27 26 23 22 20 18 16 14 14 15 16 17
4 2 4 7 11 5 5 10 7 5 5 5 6 6 3 4 2 1 3 1 2 2 3 2 2 3 4 4 4 2 6 7 6 7 7 9 11 11 10 11 11 11 10 9 9 9 9 11 15 16 16 17 20 21 20 21 23 24 22 22 22 22 22 21 20 19 19 20 20 21 22 24 26 27 27 25 23 22 21 19 17 15 16 18 18 17
1 4 1 5 9 6 5 7 8 6 2 2 6 6 2 3 4 3 3 3 3 3 2 1 2 3 5 6 5 8 9 9 9 9 9 12 14 12 11 11 11 11 10 9 9 10 9 11 17 19 18 18 21 22 20 21 24 24 23 23 23 22 21 21 20 18 19 21 22 25 26 27 28 28 27 24 23 23 21 19 17 18 19 19 18 17
1 2 3 4 5 6 5 7 9 9 6 3 6 7 3 1 3 3 1 2 3 3 3 2 1 5 6 5 7 9 8 11 14 13 12 12 13 12 11 11 11 11 10 9 9 10 10 12 16 18 18 19 21 22 20 21 24 25 24 24 24 23 22 20 19 18 19 21 23 27 29 29 28 27 25 24 23 23 21 19 18 20 21 20 18 17
1 1 3 5 5 5 5 4 6 9 8 6 5 6 5 3 4 4 2 1 2 2 3 4 2 7 6 4 6 6 6 9 11 10 8 8 10 10 9 10 11 10 11 10 9 11 10 11 15 17 18 20 21 22 21 20 24 26 25 25 24 23 22 20 19 20 21 22 23 26 28 28 27 25 24 24 24 23 21 19 20 22 23 21 18 17
3 2 2 3 4 5 4 4 8 11 8 6 4 5 5 4 5 6 4 3 2 1 1 3 2 6 6 4 4 5 3 6 6 6 5 5 7 8 8 9 9 9 10 10 9 10 10 11 16 17 18 21 21 22 21 20 23 26 26 26 25 23 22 21 21 22 22 23 24 25 26 26 25 24 24 25 25 23 21 20 22 24 23 21 18 17
2 2 1 1 2 2 1 2 6 9 8 5 4 4 6 5 5 6 5 4 4 3 1 2 2 6 6 3 3 4 4 5 6 7 7 6 6 7 8 9 8 8 9 9 7 7 9 12 14 14 16 20 21 22 22 21 22 24 25 26 25 24 23 22 22 24 24 25 25 26 26 25 25 25 25 26 25 23 22 22 24 25 24 21 19 18
2 1 3 4 5 4 2 4 3 5 7 6 5 5 6 6 6 4 3 4 2 4 4 4 3 7 6 3 2 1 4 5 5 6 7 7 7 7 7 8 8 8 8 10 8 7 10 12 12 11 13 18 21 23 25 23 22 23 25 26 26 25 23 23 24 25 26 26 26 26 26 25 25 26 27 26 25 23 22 23 24 25 24 22 20 18
3 2 3 5 6 7 6 4 3 4 5 4 4 7 8 7 8 5 3 4 2 3 4 5 4 7 7 5 5 3 5 5 5 6 6 7 8 8 8 8 9 8 8 11 10 8 10 12 12 12 14 16 19 22 25 26 25 24 24 26 26 25 24 25 27 27 27 27 27 27 26 26 26 27 27 26 24 22 22 23 24 24 23 21 20 20
2 1 2 5 6 7 7 5 4 6 6 4 6 10 9 7 8 6 5 4 4 3 3 5 6 4 9 7 4 2 3 5 5 6 7 7 8 9 9 9 9 8 8 10 10 9 10 11 13 14 15 16 17 19 23 26 25 24 25 25 25 26 27 27 28 28 28 28 28 27 27 27 27 27 26 25 23 21 21 22 23 22 22 20 20 22
2 3 2 5 5 7 7 5 7 10 8 7 9 11 11 9 8 7 5 5 6 6 3 8 5 3 8 8 5 5 5 4 5 5 6 8 9 9 9 10 10 10 9 10 12 12 12 12 13 14 15 16 16 15 19 25 25 23 24 26 26 27 28 29 29 29 29 28 28 28 28 27 27 26 25 23 21 20 20 22 22 21 21 21 22 23
1 3 3 2 4 7 7 6 8 12 9 8 11 12 11 10 10 9 8 7 8 7 6 7 8 7 8 7 4 5 5 3 3 4 5 7 9 10 11 11 11 12 12 12 13 13 12 11 10 11 14 17 19 17 16 21 26 25 23 26 29 28 29 31 31 30 30 29 29 28 28 28 26 25 23 21 20 20 20 21 21 21 22 23 24 25
2 4 3 1 6 7 5 6 8 12 10 8 11 13 12 11 12 12 8 7 7 6 5 5 7 8 9 6 5 5 4 4 5 6 7 8 10 10 12 12 13 13 14 14 12 11 11 10 9 10 13 17 21 22 19 20 25 27 26 27 29 29 29 31 32 32 31 29 29 29 28 28 26 24 22 21 20 20 20 21 21 22 24 25 26 25
2 3 1 2 3 5 1 3 7 10 13 10 10 11 11 11 10 7 4 4 4 3 1 5 4 6 6 4 3 3 4 7 7 8 8 8 10 11 11 12 13 13 13 11 10 10 11 11 10 10 11 15 19 23 23 23 24 26 28 29 30 29 30 32 32 32 31 29 29 29 29 28 26 24 23 22 21 20 21 22 23 24 25 26 26 25
3 3 2 3 1 4 2 2 6 8 11 10 7 8 10 10 7 4 3 5 7 4 3 5 2 5 5 2 2 2 5 8 9 9 9 8 10 12 12 13 14 14 13 11 11 11 12 12 12 12 13 16 20 21 23 26 26 25 26 29 31 31 29 30 31 31 31 30 29 30 29 28 27 25 24 23 22 21 22 23 24 25 26 26 25 24
3 3 2 2 2 4 3 3 6 7 8 5 6 8 9 7 5 4 2 4 7 7 7 5 5 6 5 4 4 3 5 7 8 9 9 10 11 11 12 13 13 12 11 11 12 13 13 12 13 15 16 19 22 23 23 26 28 27 26 27 31 32 29 28 30 30 31 31 31 31 30 29 28 26 24 23 23 22 24 25 25 26 26 25 24 24
3 3 1 1 2 3 3 2 6 7 5 6 6 5 6 5 7 8 4 5 8 5 3 4 6 4 3 4 5 6 4 3 4 5 6 9 11 11 12 12 11 10 9 9 10 10 10 10 11 16 19 20 21 23 24 25 26 28 29 29 30 32 29 27 28 31 32 33 32 31 30 30 29 26 24 24 25 25 26 27 26 25 25 24 24 24
1 3 1 1 3 1 1 4 6 5 6 7 4 2 5 4 8 9 2 3 7 5 3 5 6 3 4 3 3 5 4 2 3 4 4 7 9 10 11 10 10 10 10 10 10 9 8 10 12 16 19 20 21 22 25 26 26 27 30 30 30 32 31 28 28 30 32 33 31 30 30 30 29 26 25 26 27 28 28 27 27 26 25 24 24 24
3 3 1 1 1 2 3 4 5 5 6 5 4 1 2 1 5 7 3 3 5 6 5 6 5 2 5 4 3 5 5 5 5 3 3 7 8 9 10 11 11 12 11 11 10 10 10 12 14 16 18 21 23 24 26 28 28 27 28 28 29 32 33 32 30 29 30 31 30 29 30 30 28 26 26 27 27 28 28 28 27 26 25 24 24 24
4 3 0 0 0 3 4 2 1 0 3 4 3 1 1 1 3 6 3 4 6 6 5 4 2 4 6 5 4 6 6 6 5 1 4 6 7 9 10 10 10 10 8 8 9 11 13 15 16 17 19 22 25 27 28 28 27 28 29 29 29 31 33 32 30 29 29 30 30 30 30 30 28 26 26 24 23 22 23 25 25 25 25 24 24 24
4 3 2 2 1 3 5 3 3 3 1 3 4 4 1 2 5 4 5 2 6 6 6 5 4 6 6 6 6 6 5 6 2 3 6 6 7 8 7 6 6 7 8 11 14 15 17 19 19 19 21 23 25 28 29 29 30 32 32 30 29 30 31 31 30 31 31 31 31 31 30 29 28 27 26 25 24 23 23 24 24 24 24 24 24 25
2 1 1 1 1 2 5 4 2 2 2 5 7 7 4 2 3 3 5 1 6 5 5 5 6 6 6 7 7 6 6 3 3 6 6 8 8 7 7 5 5 7 10 14 17 18 19 21 21 21 22 23 23 26 28 30 32 33 31 29 29 28 28 31 33 34 33 33 32 30 29 29 29 29 29 31 32 32 29 28 27 25 25 24 24 25
3 1 2 4 1 1 4 3 1 2 1 3 6 6 4 1 4 6 4 5 7 4 4 5 6 7 7 6 6 5 5 6 6 5 5 8 6 5 7 7 6 8 11 15 17 19 21 23 22 21 22 23 24 26 29 30 31 30 29 30 29 28 30 34 35 35 34 32 29 29 29 30 30 30 30 31 32 31 31 30 28 27 26 25 24 25
3 1 2 4 2 2 4 3 0 2 2 3 5 6 5 2 5 6 5 7 5 4 4 5 5 6 7 8 6 4 4 5 4 3 5 8 7 6 6 6 7 8 11 15 19 21 22 23 24 23 23 24 26 28 30 30 28 26 27 28 29 32 34 32 29 30 31 29 28 29 30 30 30 29 29 29 30 30 30 30 29 28 27 26 26 26
0 2 2 2 2 2 3 3 1 1 2 2 5 5 2 2 3 4 5 4 3 4 4 4 6 6 7 8 4 1 2 1 0 2 5 8 8 8 6 6 7 8 9 14 18 20 21 20 20 21 22 24 26 28 28 28 25 23 24 26 27 28 25 23 25 28 29 29 28 28 29 29 28 28 28 29 31 31 31 30 29 29 28 28 28 27
2 2 1 0 1 2 3 4 3 1 2 3 5 3 2 2 3 4 2 2 2 5 4 4 6 6 7 7 2 2 2 3 4 3 4 4 5 6 6 6 7 8 10 13 15 18 19 17 17 18 20 23 26 27 27 26 23 21 22 22 20 19 20 23 27 28 29 29 28 28 29 29 27 26 29 31 33 33 32 30 30 29 29 29 29 28
2 2 2 2 2 2 3 2 1 3 4 3 2 1 1 3 3 3 2 2 3 3 3 3 5 6 6 6 2 1 3 4 4 4 4 3 3 4 5 6 7 8 10 13 15 18 20 17 16 17 19 23 25 26 27 26 23 20 20 19 18 20 22 25 26 26 27 28 28 29 30 28 26 26 30 32 32 32 32 31 30 30 29 29 30 29
1 2 3 3 2 2 3 3 4 3 4 3 1 2 4 5 4 3 4 1 1 2 2 3 4 4 5 7 5 2 3 3 3 3 4 4 3 3 4 5 6 8 10 12 15 18 18 18 18 17 18 20 23 24 23 23 21 20 20 20 20 21 23 24 26 26 27 28 28 29 30 28 27 28 30 32 33 32 32 32 31 30 30 30 30 30
2 2 2 3 1 1 1 1 0 2 3 4 3 3 4 4 4 2 2 2 2 3 3 3 4 5 5 6 5 4 3 3 4 4 4 5 4 4 4 4 6 9 11 13 15 16 16 17 17 17 16 16 18 19 17 15 17 21 22 21 20 20 23 25 25 25 25 27 28 30 30 30 28 28 30 32 33 33 33 33 32 31 31 31 31 30
2 1 3 3 2 2 1 1 3 3 3 4 5 4 4 5 5 4 4 4 4 3 3 2 2 6 5 5 6 5 4 5 5 4 4 5 4 4 4 4 5 8 11 13 15 16 16 16 15 16 16 15 16 16 14 13 16 20 22 21 20 22 25 26 26 26 26 27 29 30 31 30 28 28 30 32 32 33 33 33 33 33 32 32 31 31
2 2 3 3 2 2 2 3 3 2 1 2 4 3 4 6 6 5 4 4 4 4 4 4 2 4 4 5 6 7 6 4 4 4 4 4 4 3 4 4 5 7 9 12 15 16 16 16 15 16 17 17 17 16 16 16 18 21 23 23 23 24 27 27 27 27 27 28 30 30 30 30 30 31 32 32 32 32 32 32 33 33 32 31 31 31
2 2 1 2 3 3 2 2 2 3 4 6 6 5 5 5 5 5 5 5 6 7 6 6 5 4 4 5 7 8 7 5 4 4 4 4 4 4 4 4 6 7 9 12 14 15 16 16 17 17 16 16 17 18 18 18 19 21 22 23 24 25 27 27 27 27 27 29 30 30 29 30 32 33 33 32 31 30 30 32 33 33 31 29 27 27
2 2 1 3 5 2 2 2 2 3 3 3 5 5 6 6 4 6 8 8 8 8 6 6 7 6 5 4 5 7 7 6 5 5 4 3 4 4 5 6 8 8 9 11 12 12 14 15 17 17 16 15 16 18 19 20 20 20 21 22 24 26 28 28 27 26 26 27 28 29 29 29 29 31 32 32 31 29 28 28 30 30 29 27 25 24
2 1 1 3 4 3 4 3 3 4 3 2 5 5 6 5 5 9 8 7 7 7 6 7 7 7 7 6 5 5 6 5 5 6 5 4 4 4 5 8 9 8 9 11 11 11 12 13 15 16 16 16 17 18 19 19 19 19 20 22 25 27 27 27 27 25 25 25 26 27 28 28 28 29 30 31 31 30 28 26 26 26 26 24 22 21
Wind_Direction
160 170 201 199 195 179 167 161 164 145 137 144 135 155 164 152 230 234 233 262 168 146 197 187 195 219 234 232 189 186 184 174 177 177 184 188 189 199 203 210 211 213 221 213 203 201 195 197 194 188 191 194 194 193 189 189 193 192 189 189 192 195 196 195 195 193 194 195 192 190 186 178 171 170 169 169 174 175 171 170 172 168 160 159 160 161
166 200 213 195 173 157 152 157 167 139 101 117 131 150 168 153 223 240 215 266 205 169 221 185 188 219 230 230 184 171 178 180 182 181 188 193 194 201 205 211 214 215 218 199 206 203 195 196 193 187 192 195 193 192 189 188 192 193 190 190 193 195 194 195 198 197 197 198 194 185 177 170 165 166 169 167 166 165 161 161 162 159 159 161 160 159
197 215 194 167 153 140 141 149 169 181 115 90 106 124 144 195 242 277 272 301 135 177 243 182 180 226 253 263 184 181 185 189 193 190 191 192 194 199 204 207 207 210 214 208 208 203 196 194 191 188 192 196 195 192 189 189 191 191 190 191 194 195 193 196 200 199 198 197 192 184 175 170 164 161 166 164 158 156 154 153 155 157 160 162 161 161
202 217 162 152 140 129 142 150 156 191 171 104 99 115 152 213 163 236 276 319 21 161 178 159 168 255 290 328 234 204 200 203 206 208 209 203 201 203 205 204 201 205 210 209 206 201 195 191 191 191 191 193 193 192 189 187 188 189 189 190 193 195 193 194 196 196 194 186 180 178 173 171 164 157 159 155 150 153 152 150 154 158 160 163 164 164
232 237 160 144 139 136 146 159 157 175 191 147 139 143 167 203 166 189 265 333 350 24 111 129 68 314 273 243 250 222 203 219 211 214 226 225 217 215 215 210 206 209 211 210 204 196 194 192 193 192 188 187 190 191 189 187 187 189 189 189 192 193 190 191 191 189 185 178 172 168 161 157 152 147 151 148 146 151 152 152 154 156 159 166 166 164
257 258 161 147 155 150 148 168 170 163 161 174 195 181 174 188 201 245 334 20 48 298 263 143 146 294 284 245 238 201 194 219 206 210 222 223 216 213 216 211 208 213 215 214 210 200 198 195 191 190 187 185 189 191 190 188 189 189 187 187 189 189 187 188 188 186 184 179 175 168 157 150 143 140 147 150 149 152 153 153 153 153 159 166 164 160
231 255 168 162 162 151 154 173 181 162 146 190 218 187 173 164 152 271 349 51 123 226 281 105 169 252 309 278 235 185 192 216 206 214 222 221 215 212 215 211 207 211 211 211 211 201 196 192 187 189 190 187 188 189 188 188 189 189 186 184 186 186 185 186 186 186 186 183 180 176 169 161 154 149 150 153 153 154 155 154 153 153 155 159 158 152
182 205 192 173 164 155 166 175 185 161 141 212 212 172 169 155 142 155 110 95 193 234 322 16 137 210 284 273 244 164 182 219 225 225 223 219 217 216 218 215 210 211 208 206 205 195 192 192 189 189 189 187 185 184 185 187 188 188 185 182 183 184 185 185 186 186 188 187 183 178 173 167 165 161 155 154 155 155 156 154 152 152 151 151 151 145
173 191 193 175 173 176 173 161 164 146 139 216 193 160 171 165 155 159 140 256 301 38 318 312 118 177 262 278 295 144 186 224 227 224 222 219 217 216 218 217 215 213 207 206 200 190 187 186 187 186 181 180 181 179 182 185 187 187 183 181 182 184 185 185 185 186 188 190 186 179 174 167 165 162 157 157 158 158 158 153 152 153 151 150 146 139
179 190 180 164 178 180 158 148 153 147 154 190 153 124 125 130 144 154 165 228 346 50 243 260 221 175 270 279 177 155 210 229 227 224 221 220 219 217 217 215 212 207 200 198 190 179 177 176 176 174 170 170 174 176 177 181 184 183 181 181 183 184 185 184 185 185 185 186 184 178 175 167 159 157 156 158 159 158 157 154 153 154 152 151 145 139
224 174 171 164 177 167 144 145 160 162 161 146 128 96 76 69 101 129 114 108 102 269 244 231 204 169 267 275 197 184 217 214 211 218 216 217 221 218 214 210 205 198 192 184 172 162 164 169 166 162 162 164 168 172 173 176 179 179 180 181 181 182 183 183 183 183 182 183 182 178 176 172 163 160 162 163 160 157 158 157 154 155 154 151 145 141
286 154 183 163 152 151 140 150 179 177 161 139 127 115 113 48 36 70 10 71 161 252 258 221 192 156 221 263 228 219 232 215 204 210 206 208 215 213 206 202 196 187 182 172 164 162 158 161 160 160 163 165 167 169 169 172 175 176 179 179 177 178 181 181 180 181 183 182 182 182 181 179 173 170 173 173 166 163 164 160 157 158 155 150 145 143
264 219 230 169 155 164 154 151 179 191 173 151 141 136 138 135 75 166 245 203 194 251 252 196 164 157 238 254 248 236 235 222 210 213 210 209 212 206 194 190 186 175 173 172 170 169 162 162 164 165 168 167 167 168 167 168 172 174 176 176 175 176 178 178 178 181 184 184 186 187 185 183 180 177 180 180 174 170 170 167 165 164 160 155 150 147
221 270 249 195 165 174 170 163 174 190 179 162 157 156 152 145 162 194 227 219 215 252 238 183 161 257 268 263 248 238 241 229 217 221 216 206 197 182 174 177 177 174 174 176 176 172 166 164 165 165 164 162 166 171 169 168 170 172 173 174 175 175 176 177 178 182 186 187 188 188 185 184 184 181 182 184 181 177 176 174 172 169 164 159 153 153
185 231 219 196 177 174 180 180 157 140 153 168 142 137 151 156 158 181 197 175 196 256 266 186 167 188 203 235 233 238 260 248 216 212 182 162 152 148 158 168 174 179 179 179 178 171 160 155 157 156 157 163 172 176 173 170 170 172 173 175 175 174 175 178 180 184 188 188 186 184 184 184 185 184 183 185 185 182 180 177 173 168 162 157 155 158
175 243 226 195 192 173 174 179 131 120 145 194 124 124 170 181 146 130 171 169 167 228 256 198 204 213 212 254 276 280 284 247 184 166 143 148 148 147 163 175 178 183 181 180 177 164 152 155 161 160 162 172 179 179 177 173 171 172 174 176 176 177 181 184 186 189 191 189 182 180 182 184 185 185 184 186 187 185 182 178 172 164 158 156 158 157
161 269 240 181 198 192 169 167 169 154 158 170 149 169 198 166 125 114 165 124 99 187 248 208 223 276 305 288 313 23 31 90 158 160 158 161 157 159 174 180 181 184 179 177 172 162 162 166 167 168 174 179 179 180 181 178 175 175 176 175 175 180 186 191 194 192 190 189 184 182 184 186 187 187 187 188 187 184 180 175 168 160 155 156 157 155
152 245 248 176 188 221 173 162 185 181 153 143 181 202 177 98 91 103 135 17 64 176 262 231 194 241 263 263 315 21 67 194 183 167 161 161 165 174 183 180 179 180 177 176 169 164 170 171 165 172 187 188 180 181 182 178 177 178 178 177 177 181 186 193 195 188 184 186 187 188 187 187 189 189 190 191 188 181 176 170 166 159 154 154 155 153
153 160 272 192 181 202 166 161 185 207 172 151 172 186 147 137 178 113 132 135 115 179 271 301 233 227 196 223 285 264 199 198 189 175 168 172 179 183 182 178 177 175 176 175 168 167 171 172 172 180 194 192 182 183 182 175 176 178 179 181 182 185 190 195 196 185 177 179 182 185 187 189 189 189 191 191 185 180 175 170 165 160 155 154 154 154
124 134 230 216 180 154 152 176 186 197 208 129 154 170 163 148 165 165 151 152 157 176 220 273 300 254 226 217 224 224 206 183 179 185 188 188 188 185 179 176 176 174 176 172 167 170 171 173 179 185 193 188 181 182 181 174 173 175 179 181 183 186 190 196 197 186 176 176 177 178 182 187 187 188 191 188 182 179 175 170 165 162 158 156 155 155
15 125 163 195 170 148 177 205 187 174 168 146 156 170 171 87 117 148 154 119 130 149 180 178 225 258 251 209 205 223 205 183 187 190 194 194 187 183 179 175 175 172 171 169 165 167 168 169 176 181 184 181 177 179 181 176 172 174 178 179 181 183 187 193 196 190 182 178 178 177 178 183 186 187 187 183 181 179 173 170 167 164 161 158 156 157
197 124 149 167 173 174 189 184 157 166 170 154 152 174 172 133 117 139 184 252 115 141 174 158 193 262 259 204 215 235 199 190 200 194 192 192 182 181 179 173 173 168 168 170 164 163 165 165 169 172 173 173 174 177 181 177 171 173 176 177 181 184 186 191 193 190 185 181 181 181 180 182 184 184 183 179 179 176 172 171 169 165 164 161 159 160
168 112 119 174 188 191 191 153 149 162 165 147 153 178 166 139 129 143 176 206 157 150 167 133 170 266 259 206 222 247 202 184 191 181 175 178 174 174 171 168 167 163 168 171 161 160 163 162 165 167 169 171 172 176 179 175 170 172 174 176 181 184 185 190 190 187 185 183 182 182 181 181 180 179 178 176 175 174 173 173 169 168 168 165 162 164
162 117 90 83 129 144 38 55 135 151 150 160 199 177 160 167 156 149 169 176 168 187 165 106 246 271 273 256 246 243 197 157 160 167 164 161 161 162 161 163 163 160 165 166 157 155 159 159 160 164 169 169 171 176 178 174 170 170 173 175 180 183 185 187 186 183 183 181 180 180 179 178 177 175 174 173 173 173 173 171 168 170 171 169 167 169
197 207 94 107 129 144 95 58 110 169 170 182 199 175 171 170 139 121 131 128 162 207 157 136 231 258 271 313 9 130 151 142 154 163 155 151 152 152 152 156 161 159 159 163 160 152 156 162 163 170 173 166 167 176 177 175 173 170 171 173 175 180 183 184 182 180 179 179 176 175 175 174 173 172 171 172 173 173 172 170 169 172 174 174 172 174
172 197 111 126 156 172 178 170 171 183 173 169 173 172 183 174 152 150 122 118 189 226 147 148 214 262 286 328 21 74 137 142 154 151 141 144 146 145 148 154 160 164 163 165 165 158 161 167 168 176 179 167 165 173 174 172 173 171 170 172 175 179 179 178 178 177 177 176 174 172 172 172 171 170 171 173 174 174 174 174 174 176 178 179 179 178
104 229 154 149 171 183 193 193 150 132 146 162 163 168 184 188 169 147 111 141 184 164 167 209 203 255 291 295 316 292 179 164 167 155 143 142 142 143 150 153 157 165 168 166 167 168 168 170 171 177 183 173 165 171 171 167 170 173 171 171 175 179 177 174 174 175 175 174 173 171 171 171 170 171 174 176 176 177 179 179 180 180 181 184 183 180
53 315 210 165 193 209 209 196 151 141 154 162 154 169 186 186 167 149 153 191 165 132 240 249 185 182 271 267 260 255 226 192 177 163 147 143 144 146 150 150 153 162 170 170 173 178 176 175 175 175 181 178 168 169 172 166 167 172 171 168 171 175 174 172 172 172 173 173 172 172 171 170 171 173 176 177 178 180 182 183 183 182 181 182 182 180
119 290 247 207 256 243 230 221 169 151 158 160 155 170 181 169 166 174 190 197 161 160 233 230 170 191 249 258 252 237 219 184 139 137 132 134 140 145 148 151 156 166 177 181 182 183 179 176 172 167 173 179 175 171 169 164 164 167 168 166 168 171 173 172 171 171 171 171 172 172 171 170 171 173 175 175 176 180 182 183 182 182 181 180 180 180
163 265 248 242 287 272 243 237 195 152 147 160 163 168 170 169 179 187 194 193 177 197 225 177 176 227 244 236 242 235 197 142 118 124 131 138 146 150 155 160 166 176 185 186 182 178 174 170 168 165 165 172 176 174 169 164 163 165 167 165 166 171 174 173 171 171 170 171 173 172 171 170 171 172 173 174 177 179 180 180 179 179 179 178 178 179
177 251 287 87 288 294 323 224 207 160 147 156 167 168 159 159 173 178 170 165 175 237 241 130 168 265 265 224 227 235 156 129 128 136 141 149 154 155 161 169 175 182 188 184 173 169 172 170 171 174 170 169 173 174 172 169 166 168 169 167 168 174 176 173 171 170 170 172 173 171 170 171 171 171 173 175 178 178 178 177 177 177 176 176 177 178
173 237 328 63 201 289 349 146 186 157 136 139 160 167 152 148 164 178 175 177 179 178 124 109 162 261 263 204 139 144 145 141 146 149 148 155 161 162 170 178 184 187 184 178 174 173 175 174 175 179 177 171 171 172 173 170 167 169 170 168 170 176 177 174 171 169 170 173 172 171 171 172 171 171 173 176 177 177 177 176 175 175 175 175 177 177
161 195 273 85 171 274 325 119 140 115 109 144 198 182 157 144 151 154 172 204 183 150 132 155 214 233 219 167 131 146 164 161 163 161 156 159 164 169 179 185 189 190 180 176 180 181 180 179 179 180 179 177 176 176 175 172 168 169 172 171 171 174 176 174 171 169 170 172 173 173 173 173 172 172 173 176 178 178 178 177 175 174 175 175 176 177
155 158 232 121 154 262 308 110 124 112 137 217 235 187 163 156 155 157 184 211 191 169 167 215 238 233 180 155 151 156 169 188 182 171 164 163 165 172 184 189 189 184 179 181 185 184 181 177 176 179 181 181 180 177 176 175 171 171 173 174 172 172 174 174 170 170 171 172 174 174 173 173 174 174 176 179 181 180 178 177 176 175 176 176 176 177
115 91 14 73 130 197 348 90 124 154 213 246 278 205 194 189 158 149 139 209 189 199 253 252 250 218 124 106 128 138 130 126 137 140 159 171 170 170 177 187 188 180 181 186 185 182 179 172 172 177 180 181 177 172 171 174 174 172 173 174 172 171 173 174 171 171 171 171 172 173 173 175 176 177 179 180 180 178 176 176 176 175 176 177 178 180
83 75 29 22 126 152 95 98 148 203 252 300 349 63 171 141 131 122 67 305 222 196 207 236 249 182 117 98 101 127 127 112 95 85 172 181 178 175 176 183 189 188 189 188 182 177 172 169 171 174 176 177 175 172 174 177 176 172 171 174 173 171 172 174 174 174 172 169 170 173 175 176 176 177 177 177 176 175 174 173 175 175 176 177 178 180
101 98 129 333 181 143 125 108 133 257 323 343 4 13 96 142 175 147 139 268 248 196 191 221 209 127 121 110 117 137 129 94 67 360 236 202 190 190 190 187 187 188 179 161 159 163 164 166 168 170 174 175 174 177 180 178 171 167 170 175 174 171 171 173 175 175 172 169 172 176 176 176 175 172 168 166 166 166 167 170 173 176 178 178 178 178
111 137 211 241 267 110 105 75 49 58 310 256 259 281 280 213 225 169 128 245 255 211 193 200 172 143 130 124 138 145 107 71 39 260 232 211 201 200 203 196 179 166 145 136 145 153 161 166 167 168 172 174 175 180 180 173 165 166 171 175 175 173 171 172 175 176 173 173 177 178 176 175 172 165 161 165 168 169 172 175 178 180 181 181 180 178
51 120 165 168 284 83 103 105 118 139 214 240 253 278 300 251 228 144 111 255 269 240 194 191 183 167 150 142 147 134 99 100 246 254 219 197 198 196 190 180 163 152 146 149 155 156 161 167 167 168 171 172 174 178 177 171 167 166 169 173 176 175 173 176 178 177 176 178 178 176 173 170 170 171 175 179 178 178 180 182 182 182 182 182 182 179
300 294 121 124 130 90 98 101 167 199 203 239 255 282 314 14 123 115 143 243 268 267 218 200 194 178 159 151 149 135 134 171 219 248 205 177 179 188 185 178 169 157 149 152 159 161 162 165 165 166 170 172 174 176 176 173 168 167 170 173 174 178 183 185 183 179 177 176 174 172 172 172 175 179 181 179 176 176 180 182 180 180 180 181 181 179
288 360 113 125 107 76 97 99 123 248 241 255 271 293 318 26 90 113 195 227 240 256 237 205 199 188 163 158 163 169 177 186 210 227 172 153 158 182 192 179 163 154 149 152 158 160 160 165 170 172 175 177 177 177 177 176 172 170 171 171 177 188 191 187 180 174 172 170 170 171 173 175 176 177 176 175 176 177 180 182 180 179 180 180 180 178
285 35 40 67 69 71 103 101 62 285 253 278 296 300 325 79 121 182 224 220 192 234 247 205 196 198 177 169 172 274 259 207 120 166 161 160 168 175 177 163 140 129 134 146 154 157 158 164 172 173 174 178 179 178 178 178 177 175 173 175 184 191 187 177 173 171 167 167 169 170 171 172 174 176 179 180 180 179 180 180 179 179 179 179 179 178
120 88 21 309 152 97 67 68 76 204 240 318 333 342 71 124 198 211 257 318 226 227 245 219 200 199 188 183 195 329 337 37 61 98 140 159 169 160 156 157 140 124 127 137 149 159 160 162 168 170 172 177 179 180 181 180 180 180 178 181 187 185 178 176 174 169 163 164 165 166 169 172 175 182 185 182 180 181 180 179 178 178 178 178 178 177
100 135 169 213 184 112 81 76 168 211 243 300 352 69 195 265 256 189 140 337 295 246 238 225 212 201 177 163 157 5 19 52 75 109 125 133 153 150 143 140 132 130 135 140 152 162 162 161 165 167 171 177 180 182 184 183 181 178 176 181 186 184 180 175 167 160 161 164 164 165 169 171 178 186 184 178 178 180 179 178 178 178 178 179 178 177
266 208 168 158 170 151 156 195 219 237 263 288 276 228 263 293 287 200 164 139 332 291 249 216 205 190 153 136 128 82 48 62 90 112 120 118 113 116 123 127 131 136 137 139 150 162 165 164 164 163 168 177 183 183 185 186 180 172 174 183 187 182 173 164 159 161 164 164 163 166 167 170 178 183 180 177 179 180 179 179 178 177 179 181 180 179
281 230 137 121 159 196 130 146 329 339 321 325 322 269 277 311 317 305 78 63 2 298 275 232 180 159 143 134 124 99 96 120 113 98 108 114 104 105 111 113 124 134 135 138 149 159 162 160 159 157 159 171 181 182 182 182 175 172 176 180 177 170 164 161 161 164 164 163 164 166 167 171 176 177 177 180 183 183 184 184 182 180 182 183 183 183
288 150 95 90 98 94 98 31 4 1 325 332 350 339 331 345 345 349 12 5 344 347 340 318 148 137 131 125 121 113 115 125 121 116 117 115 113 123 122 117 129 139 142 147 152 155 154 149 149 151 154 165 176 175 166 161 168 177 181 176 170 170 170 169 169 168 166 166 166 166 169 173 173 173 177 180 182 183 185 187 185 183 183 183 185 186
299 68 85 98 88 105 191 242 323 357 347 6 22 10 349 350 348 351 5 3 8 31 32 21 65 112 112 108 113 113 105 103 117 130 126 116 114 118 115 119 132 133 137 147 153 154 152 148 149 154 159 165 170 167 160 158 168 181 183 176 173 174 173 174 174 170 168 169 167 167 172 176 176 176 178 180 182 184 184 185 186 186 187 189 191 191
318 26 106 132 83 77 171 238 333 36 40 24 21 15 350 328 332 2 25 33 33 36 39 40 47 67 95 112 120 118 119 126 133 128 122 121 123 117 110 124 135 134 137 147 155 158 156 153 155 159 162 163 164 165 165 166 171 179 180 176 177 178 177 177 176 171 170 171 169 169 174 177 177 177 178 180 183 186 187 189 190 192 194 198 200 203
35 43 96 111 99 120 207 205 146 116 82 359 337 352 343 319 348 37 33 27 27 25 30 48 52 47 53 76 101 116 127 137 133 126 121 111 114 124 132 141 144 142 142 147 153 157 157 156 158 159 158 157 159 163 167 168 169 174 177 178 181 184 182 178 173 169 171 171 169 171 174 173 172 174 177 179 183 186 190 193 194 196 200 202 205 211
92 147 163 124 134 213 234 195 147 123 114 300 309 335 336 329 34 56 39 20 21 18 24 50 58 48 38 31 40 83 110 113 106 112 107 81 86 124 149 153 152 147 146 151 153 150 147 151 157 157 155 156 160 164 169 171 172 176 182 185 186 186 184 178 170 167 169 170 170 172 174 172 173 177 179 182 184 187 189 191 194 200 206 208 209 213
Height
749 753 754 749 747 749 752 752 752 753 754 755 758 759 760 761 761 760 754 747 747 753 758 758 757 758 752 751 760 763 760 763 764 764 765 764 765 765 765 764 763 764 762 762 765 765 767 769 771 774 776 777 779 780 782 784 787 789 790 793 795 797 799 800 802 804 807 809 811 812 814 814 815 816 818 820 822 823 825 826 827 827 828 828 829 830
749 751 749 743 744 746 750 751 749 752 755 754 757 759 761 763 759 755 752 748 748 751 755 757 757 756 751 751 761 763 761 763 763 764 765 763 764 763 763 764 763 763 763 763 764 765 766 769 770 773 775 777 778 780 781 783 786 788 790 792 794 797 798 799 802 806 808 809 810 811 813 814 815 816 818 819 821 823 824 826 827 827 828 828 829 830
750 748 744 742 743 744 749 751 749 753 756 757 759 760 762 764 760 755 750 747 748 749 754 760 759 756 756 758 765 764 761 762 759 758 759 759 760 760 760 761 762 763 763 762 762 763 765 767 770 772 774 776 777 779 781 782 785 788 790 792 794 796 797 799 803 806 808 809 811 811 812 813 815 817 819 820 821 822 824 826 827 828 828 829 830 830
751 746 741 741 741 745 751 751 751 755 758 761 763 763 764 764 763 758 751 748 748 748 752 757 757 758 765 765 763 764 762 760 759 757 757 756 756 756 755 756 758 760 760 760 760 761 764 766 768 770 772 775 777 779 780 782 785 788 790 792 794 796 797 800 804 806 808 810 811 812 813 814 815 817 819 820 821 823 824 826 827 828 829 830 830 830
747 741 738 739 741 744 751 752 753 758 763 763 762 764 763 761 760 758 755 751 750 752 750 753 758 759 764 763 757 760 763 761 760 759 758 757 755 755 755 756 756 756 756 758 759 760 762 764 766 769 772 774 776 778 779 781 784 787 789 791 794 795 797 800 804 806 808 809 811 812 813 815 816 818 819 820 821 823 824 825 827 828 830 830 830 831
745 739 736 739 742 743 749 753 752 756 764 766 762 760 758 757 757 758 757 754 756 759 751 754 766 764 761 762 758 760 765 763 761 761 759 757 755 756 756 755 755 755 755 756 757 759 761 764 766 769 771 773 775 777 779 781 784 786 789 791 793 795 797 800 803 806 808 809 810 811 812 814 816 818 820 820 822 823 825 826 827 829 830 831 831 831
742 739 736 738 742 744 748 752 751 752 763 767 759 755 755 755 758 758 758 759 762 763 756 755 765 767 759 755 757 762 764 763 762 761 758 756 755 754 752 751 752 753 753 755 756 759 762 764 766 768 770 772 774 776 779 781 784 786 788 791 793 795 797 800 803 805 807 809 810 811 812 814 816 818 821 822 823 824 825 826 828 830 831 832 832 832
737 739 739 738 740 745 748 750 749 749 759 763 753 751 755 756 760 760 758 761 762 759 759 757 759 767 761 751 757 764 764 764 764 761 757 754 753 751 750 749 749 750 751 753 756 758 761 763 765 767 769 771 774 776 779 781 784 786 788 790 793 795 797 800 802 805 807 809 811 812 813 815 816 819 821 823 824 825 826 827 828 830 831 833 833 833
733 737 741 739 741 746 746 745 745 747 753 754 749 751 753 756 759 758 758 761 761 762 766 761 759 768 764 755 760 763 763 765 761 758 755 751 749 748 748 748 747 749 750 753 755 757 760 762 765 767 769 771 774 776 778 781 783 786 788 790 793 795 797 799 802 804 807 809 810 812 814 816 818 820 822 823 825 826 827 828 829 831 832 833 833 833
732 733 735 738 741 743 741 740 742 744 745 746 749 752 753 757 759 758 760 761 763 771 772 763 760 767 764 758 762 764 762 761 754 751 750 746 746 746 746 747 746 748 750 752 755 757 760 763 765 767 769 771 773 775 778 780 783 785 787 790 792 794 796 799 802 804 806 808 810 812 813 815 818 821 823 824 825 826 827 829 830 832 833 833 833 834
730 728 730 734 736 736 735 739 741 739 740 743 747 751 755 760 760 761 765 764 772 778 770 762 758 763 765 757 757 759 750 745 744 745 745 744 743 742 742 744 745 747 750 752 754 757 760 763 765 767 768 770 772 774 777 779 782 784 786 789 791 793 796 799 801 803 805 808 809 811 812 813 817 822 825 824 825 826 827 829 831 832 833 833 834 834
731 732 732 728 729 730 732 739 740 736 737 740 743 748 757 764 764 767 770 769 780 778 764 761 758 762 767 753 744 745 737 734 736 736 738 739 737 736 738 741 744 747 749 751 754 756 759 761 764 765 766 768 769 772 775 778 781 783 785 788 790 793 796 798 801 803 805 807 809 810 811 812 815 818 823 825 825 826 827 829 831 832 833 834 834 834
735 734 732 726 725 726 731 740 744 741 740 741 744 750 762 772 773 776 776 775 781 774 762 764 761 762 764 744 731 733 730 729 727 724 727 729 730 733 737 741 743 746 748 750 753 754 757 759 761 764 765 766 769 771 774 776 780 783 785 787 790 792 795 798 800 802 804 806 808 809 811 813 815 817 821 825 826 826 827 828 830 831 832 833 834 835
739 735 730 729 726 722 726 736 742 743 743 744 746 751 761 772 778 783 784 782 780 768 762 765 761 761 757 735 723 723 721 722 721 719 721 723 728 733 737 741 743 745 747 749 752 753 756 758 760 763 766 768 771 773 775 776 779 783 785 787 789 792 795 798 800 801 803 805 807 809 810 812 815 817 820 824 826 827 828 829 830 831 832 833 833 834
740 739 730 727 726 721 722 728 731 736 742 743 742 747 754 759 765 774 777 776 772 763 762 767 760 756 747 728 721 723 721 721 718 718 720 722 728 732 735 740 742 744 746 747 750 753 755 757 759 762 764 766 770 773 775 776 778 782 784 786 789 792 795 797 799 800 802 804 806 808 810 812 815 817 819 824 826 827 828 829 830 831 832 833 833 834
737 735 724 720 720 718 722 724 723 731 744 744 740 745 749 745 748 761 768 765 762 759 762 764 754 744 732 719 721 726 722 721 718 718 722 724 727 731 734 739 740 742 744 745 749 753 754 756 756 758 760 763 767 771 774 776 777 780 783 786 788 791 794 796 798 800 801 804 806 808 810 812 815 817 819 823 826 827 829 830 830 832 832 833 833 834
735 731 719 718 719 716 719 721 720 726 738 743 744 744 744 739 738 752 767 768 765 762 762 761 749 737 731 721 720 725 722 722 722 720 723 726 727 731 733 735 738 739 741 744 747 751 752 753 753 755 758 761 765 769 772 774 776 779 782 785 788 791 793 795 798 800 802 804 805 806 809 812 815 817 819 822 825 827 829 830 831 832 832 833 834 835
729 728 718 716 721 718 714 716 719 719 725 737 745 740 738 741 739 743 757 767 771 767 761 759 747 738 739 729 720 725 727 727 728 724 725 728 728 730 731 732 735 738 740 743 746 749 750 751 754 757 759 761 764 768 771 773 775 778 781 784 787 789 791 794 797 800 801 802 803 804 807 811 814 816 819 822 824 827 828 830 831 832 832 833 835 836
721 725 720 714 717 717 712 718 725 722 719 726 731 730 733 743 748 749 754 761 768 769 761 758 752 743 740 728 714 715 721 725 729 728 727 728 727 728 729 731 734 737 739 742 745 748 749 751 754 757 760 762 764 768 771 773 775 778 781 783 786 788 790 793 796 799 801 802 803 805 807 810 813 816 819 821 824 826 828 829 830 831 832 833 835 836
718 722 723 715 711 715 716 720 727 727 723 722 723 727 730 734 740 746 751 752 756 765 762 756 754 743 730 719 706 702 712 724 728 727 725 724 723 723 725 728 732 735 738 741 744 746 748 750 753 755 759 762 764 768 771 772 774 776 780 782 785 788 790 792 795 797 800 802 803 806 809 811 814 817 819 821 824 826 827 829 830 830 832 833 835 837
719 720 721 717 713 717 719 716 718 722 725 726 728 733 732 731 734 738 746 749 747 755 760 757 754 736 715 710 702 695 708 720 720 719 720 719 719 721 723 726 729 733 737 739 741 744 746 749 752 755 759 762 764 768 770 772 773 775 779 781 784 787 789 791 794 796 798 800 803 806 808 811 814 816 819 821 824 826 827 829 829 830 832 833 835 837
719 718 718 719 718 718 715 708 709 713 718 722 727 732 730 729 735 741 749 752 745 747 753 753 749 727 705 706 703 697 708 716 715 716 718 718 719 721 723 725 728 732 735 737 739 741 745 747 751 755 758 761 764 767 770 771 772 775 777 780 783 786 789 791 793 795 797 799 802 805 807 810 813 815 818 821 823 825 826 827 829 830 831 833 835 837
714 717 718 720 717 714 709 704 706 708 713 718 720 724 726 726 731 738 746 748 745 749 751 749 744 720 701 707 708 705 712 714 714 718 719 720 722 723 725 727 729 732 734 736 738 740 743 746 750 753 756 760 763 766 769 770 772 774 776 779 782 785 788 790 793 795 797 799 801 804 806 809 812 815 817 820 822 824 825 826 828 829 831 832 834 836
711 717 720 718 714 710 707 706 706 705 711 719 719 720 723 722 722 725 732 735 738 744 744 746 745 718 701 711 714 710 713 712 713 716 717 721 723 724 727 728 731 734 734 737 739 740 743 746 749 753 755 758 761 764 767 769 771 773 775 778 781 784 787 789 792 794 796 799 801 803 806 808 811 814 816 819 821 822 824 825 827 829 830 832 834 836
712 718 718 718 721 721 718 719 719 715 713 715 717 719 718 718 720 723 729 731 735 741 738 739 741 717 699 709 714 711 713 712 713 714 714 720 723 725 729 730 732 734 735 737 739 740 744 746 749 752 753 755 758 761 765 767 770 772 774 776 779 782 786 788 791 793 795 798 800 802 805 808 810 813 815 818 820 821 823 825 827 828 830 831 833 836
710 717 715 716 725 729 727 725 722 716 713 712 713 717 716 717 720 723 729 732 735 744 741 733 730 713 697 702 708 711 714 712 713 716 715 719 723 725 729 730 732 734 735 737 739 740 743 744 747 750 752 753 756 759 762 765 768 771 773 775 778 781 784 787 789 792 795 797 799 802 804 807 809 812 815 817 819 820 823 824 826 828 829 831 833 835
709 713 713 712 715 717 714 710 706 706 711 713 714 716 716 717 719 721 728 730 730 741 740 726 721 714 700 697 701 709 714 713 714 716 717 720 723 725 727 729 731 734 734 736 738 739 741 743 745 748 750 752 754 758 760 762 766 769 772 775 777 780 783 786 788 791 794 797 799 801 804 806 809 812 814 816 818 820 822 824 825 827 829 831 832 834
711 712 712 711 710 707 702 699 697 700 708 711 712 715 714 716 720 722 725 726 726 735 734 720 720 719 705 695 697 705 712 714 715 717 718 720 722 724 726 728 731 734 734 735 736 737 739 741 743 746 749 752 755 758 760 761 765 769 772 774 777 780 782 784 787 790 793 795 798 800 803 805 808 811 813 815 817 819 821 823 825 826 828 830 832 834
712 713 711 710 708 705 704 701 696 696 703 705 707 712 714 716 721 721 720 722 720 720 718 715 718 715 701 694 700 707 712 714 716 718 719 721 722 723 726 728 730 732 732 733 733 735 737 739 742 745 748 751 754 757 760 761 764 768 772 773 776 779 782 783 786 789 791 794 797 800 802 805 808 810 813 815 817 819 821 822 824 826 827 829 831 834
709 711 708 709 707 702 703 705 698 695 701 704 704 707 710 713 717 715 716 721 718 712 715 719 717 707 698 699 705 709 711 712 714 718 720 721 723 724 725 727 728 729 729 729 732 735 737 740 742 745 747 750 752 755 758 761 762 766 770 772 774 778 781 783 785 787 790 793 796 799 802 804 807 809 812 814 817 819 820 822 823 825 827 829 831 833
709 711 708 708 707 702 700 701 699 695 697 702 707 708 708 713 718 719 720 725 722 715 719 727 720 705 702 709 712 711 711 711 714 717 720 721 723 724 725 726 726 726 727 729 733 735 737 739 742 745 747 748 751 753 756 759 761 764 768 769 772 777 780 782 784 786 789 792 795 798 801 803 806 809 811 814 816 818 820 821 823 824 826 829 831 833
709 712 710 707 707 704 700 702 702 697 695 702 710 712 713 714 717 717 716 717 715 710 714 724 716 701 703 713 715 712 711 711 713 716 718 720 721 722 724 724 723 723 725 729 732 733 735 738 740 743 745 747 749 752 754 757 760 763 766 768 770 776 780 782 783 785 788 791 795 798 800 803 805 808 811 813 815 818 819 821 822 824 826 829 831 833
709 708 707 709 708 704 705 706 702 701 707 710 708 708 709 708 709 713 712 711 710 707 708 711 703 696 704 711 709 710 713 712 713 714 715 717 720 721 722 722 721 722 725 727 729 731 732 735 737 740 743 745 747 750 753 755 758 761 765 768 770 774 779 781 783 785 787 790 794 797 799 802 804 807 810 812 815 817 819 820 822 824 826 828 831 833
707 705 708 712 707 703 708 708 703 710 718 713 707 708 707 701 699 703 705 706 707 707 707 704 698 701 710 710 705 709 714 713 713 712 711 712 715 717 719 720 720 722 725 727 728 730 732 734 737 740 742 745 747 750 753 756 758 760 763 767 770 773 778 781 783 784 786 789 792 795 798 800 803 806 809 811 814 815 817 819 821 824 826 829 831 833
705 705 711 714 709 706 709 706 708 717 716 706 709 715 712 705 699 697 701 704 705 708 708 701 697 705 712 711 709 711 712 712 712 712 711 711 711 713 716 718 719 721 723 725 727 730 732 734 736 739 741 744 747 750 753 755 758 760 763 767 770 773 777 780 782 783 785 787 791 794 797 799 802 805 808 811 813 815 817 819 821 824 826 829 831 833
706 708 712 715 713 710 706 704 710 716 709 704 709 711 709 708 703 697 703 707 705 707 706 698 699 709 712 710 711 711 710 711 712 712 712 711 710 711 712 714 716 717 719 721 724 728 730 733 735 738 741 744 746 749 751 754 757 761 765 769 771 772 774 778 781 783 784 786 790 793 795 798 801 805 808 811 814 816 817 819 821 824 826 829 831 833
708 712 713 712 712 710 708 708 711 711 709 707 707 706 706 706 702 698 699 703 703 707 706 701 702 709 710 709 712 711 709 710 713 714 713 711 709 709 709 710 712 714 717 721 725 728 731 733 735 738 740 743 745 747 750 753 757 762 765 768 770 771 772 775 778 781 783 785 788 792 795 798 801 805 809 813 817 821 822 823 824 826 828 830 832 834
706 712 713 712 713 711 708 712 715 716 716 711 706 706 707 708 710 706 699 698 700 704 707 704 702 705 707 708 710 707 704 706 709 709 710 710 709 708 709 710 712 714 719 722 725 728 730 732 734 737 739 742 743 745 748 752 756 760 763 765 768 769 770 772 776 778 780 782 786 790 793 797 800 804 808 812 815 820 823 825 826 828 829 831 832 834
706 715 718 714 712 708 701 706 716 718 715 711 705 704 706 710 712 708 702 701 699 702 708 707 701 703 706 705 705 703 702 705 704 701 704 708 707 708 709 711 713 716 719 722 723 726 729 731 733 736 738 741 742 744 747 750 753 757 761 764 766 768 768 769 771 773 776 780 784 789 792 796 799 802 804 805 807 812 817 821 824 827 830 831 832 834
705 710 711 706 706 707 702 707 717 716 710 708 705 703 708 711 708 707 711 709 701 702 708 706 701 702 705 705 705 701 699 700 699 698 702 706 707 708 709 710 712 716 719 722 723 725 728 730 733 735 737 739 741 743 746 749 752 756 759 762 764 765 765 765 767 769 773 779 784 788 792 795 797 799 802 805 808 812 816 819 823 826 828 830 832 834
703 703 707 704 704 706 704 708 718 715 708 707 706 705 709 709 705 708 711 706 700 703 706 705 704 704 704 704 703 698 697 699 700 700 704 706 707 708 710 710 713 716 718 721 723 725 728 730 732 733 736 738 741 743 745 748 751 755 758 760 762 761 760 762 766 770 775 780 785 788 791 794 796 799 803 808 811 815 817 819 822 824 827 829 832 834
699 700 707 709 710 712 710 711 717 715 710 710 709 708 709 705 702 705 705 701 702 703 702 703 705 704 703 702 701 700 701 703 703 704 705 705 706 708 710 712 715 717 720 722 724 726 728 730 732 734 736 738 741 743 745 748 751 754 757 759 759 759 760 764 768 772 776 780 783 787 791 794 797 800 803 806 809 813 817 819 821 823 826 828 830 833
703 704 708 713 718 718 713 712 715 714 711 712 709 706 706 703 701 703 703 703 704 702 701 702 703 702 702 702 702 704 704 703 704 706 707 707 707 708 710 713 715 718 721 723 725 727 729 731 733 735 736 738 741 743 745 748 750 752 755 757 759 761 763 767 769 772 775 778 782 786 790 794 797 800 802 804 807 811 814 818 821 823 825 827 829 831
710 707 707 713 718 712 705 710 716 714 713 714 711 706 707 706 705 706 705 703 702 702 702 702 700 701 702 702 704 706 705 704 706 708 708 710 710 710 712 714 716 719 721 723 725 727 729 732 734 736 738 739 741 743 745 747 749 752 754 757 759 761 763 767 770 774 777 779 781 785 789 793 797 800 802 804 808 811 814 818 820 822 825 826 828 830
711 709 706 711 718 715 710 713 717 714 713 715 713 711 710 707 707 708 705 701 701 703 703 701 700 701 702 702 705 707 707 707 710 710 710 712 713 714 715 716 717 719 721 724 726 728 730 732 734 736 739 740 741 743 746 748 750 752 755 757 759 761 764 768 772 775 778 780 782 785 789 793 797 799 801 805 808 811 815 818 819 821 824 826 827 828
712 714 710 710 715 716 714 714 716 715 714 714 713 712 711 708 706 705 702 701 703 704 703 701 700 700 702 702 703 706 708 711 712 713 713 713 715 716 717 718 720 721 722 724 726 729 731 733 735 737 739 741 743 745 747 750 752 753 756 758 760 763 766 770 773 776 778 780 782 785 789 792 795 798 802 805 807 809 812 816 818 820 822 824 826 827
712 712 712 711 713 714 712 713 715 715 715 715 713 711 710 708 707 705 703 703 704 704 704 702 701 702 703 702 703 706 710 712 714 715 715 715 716 718 719 720 722 722 723 725 726 729 731 734 736 738 740 742 744 746 749 751 753 755 757 759 761 764 766 769 772 775 777 780 783 786 788 791 794 798 802 806 807 808 811 814 816 818 820 822 824 826
712 710 711 713 715 714 713 713 715 715 716 717 715 713 712 711 709 708 707 707 706 705 705 705 704 703 703 703 706 709 712 715 716 716 716 717 718 720 721 723 724 725 726 726 728 730 732 734 737 739 740 742 745 747 749 751 753 756 757 759 762 764 767 769 771 774 777 780 783 786 788 790 793 797 801 805 807 809 810 813 815 816 817 819 821 823
714 711 713 715 716 716 716 715 714 714 714 715 715 715 715 714 713 711 709 708 707 706 706 706 706 706 705 706 708 710 712 715 717 717 717 718 719 721 723 725 726 727 728 728 729 731 733 735 737 739 741 743 745 748 750 752 753 756 758 760 763 765 767 770 772 774 778 780 782 785 788 790 792 795 799 803 806 809 811 812 813 814 815 817 818 820
714 713 715 715 713 714 715 715 713 713 716 718 718 717 717 716 714 711 709 709 709 709 709 708 708 708 709 709 709 710 713 715 715 717 719 720 721 723 724 726 727 728 729 730 731 732 734 736 738 740 742 745 747 749 751 752 754 756 759 761 763 765 767 769 771 775 778 780 782 785 787 790 794 796 799 802 804 808 811 812 813 814 815 817 819 820
716 716 716 713 712 714 716 716 715 715 718 721 721 720 719 718 715 713 714 715 714 713 712 710 710 711 712 712 713 713 714 715 717 719 721 723 725 726 726 727 728 729 730 731 732 734 736 737 739 741 743 745 748 750 752 753 755 757 759 761 763 765 766 769 771 774 778 780 782 785 787 791 794 797 800 802 804 807 810 812 813 815 816 817 819 820